Regional Weather Roundup
Issued by NWS

Home | Current Version | Previous Version | Text Only | Print | Product List | Glossary On
Versions: 1 2 3 4 5 6 7 8 9 10 11 12 13 14 15 16 17 18 19 20 21 22 23 24 25 26 27 28 29 30 31 32 33 34 35 36 37 38 39 40 41 42 43 44 45 46 47 48 49 50
000
ASUS42 KFFC 300103
RWRGA
WEATHER ROUNDUP FOR GEORGIA
NATIONAL WEATHER SERVICE PEACHTREE CITY GA
900 PM EDT MON AUG 29 2016

NOTE: "FAIR" INDICATES FEW OR NO CLOUDS BELOW 12,000 FEET WITH NO
SIGNIFICANT WEATHER AND/OR OBSTRUCTIONS TO VISIBILITY.

* = USE WITH CAUTION. THE STATIONS MARKED WITH AN ASTERISK MAY NOT
REPORT WEATHER SUCH AS PRECIPITATION, FOG, OR THUNDER AND ARE NOT
QUALITY CONTROLLED BY NWS.

THE REMARK "TC" DENOTES TEMPERATURE READING IN DEGREES CELSIUS.

GAZ001>058-300200-
NORTH GEORGIA

CITY           SKY/WX    TMP DP  RH WIND       PRES   REMARKS
ATLANTA        PTCLDY    83  65  54 E13       30.08R
ATHENS         CLEAR     80  69  69 NE3       30.08R
CHAMBLEE       CLEAR     82  66  58 E5        30.09R
PEACHTREE CITY CLEAR     83  68  60 E3        30.07R
ROME           CLEAR     81  67  62 CALM      30.05R
WEST ATLANTA   CLEAR     85  67  54 E5        30.07R
GAINESVILLE    CLEAR     78  63  59 E5        30.13R
CARTERSVILLE   CLEAR     78  68  71 SE3       30.07R


CITY           SKY/WX    TMP DP  RH WIND       PRES   REMARKS
DALTON*        CLEAR     79  68  69 CALM      30.06R
LAWRENCEVILLE* CLEAR     79  68  69 E6        30.09R
MARIETTA       PTCLDY    82  67  59 E3        30.09R
KENNESAW*      CLEAR     82  64  54 E8        30.04R
CANTON*        CLEAR    N/A N/A N/A CALM      30.12R
BLAIRSVILLE*     N/A    N/A N/A N/A MISG      30.15R
$$

GAZ059>098-102>109-300200-
CENTRAL GEORGIA

CITY           SKY/WX    TMP DP  RH WIND       PRES   REMARKS
AUGUSTA-BUSH   PTCLDY    75  72  90 CALM      30.05R
AUGUSTA-DANIEL PTCLDY    80  70  71 SE6       30.07R
COLUMBUS       CLEAR     81  69  67 NE5       30.02R
MACON          CLOUDY    76  70  82 NE3       30.04S
ROBINS AFB     CLOUDY    75  72  91 N5        30.03S


CITY           SKY/WX    TMP DP  RH WIND       PRES   REMARKS
LAGRANGE*      PTCLDY    83  73  71 CALM      30.05R
MILLEDGEVILLE* CLOUDY    79  72  78 E3        30.06S
$$

GAZ099>101-110>166-300200-
SOUTH GEORGIA

CITY           SKY/WX    TMP DP  RH WIND       PRES   REMARKS
SAVANNAH       PTCLDY    76  72  87 N7        30.04R
VALDOSTA       CLEAR     81  75  82 CALM      30.00R
ALMA           CLEAR     78  74  87 CALM      30.02R
ST SIMONS      PTCLDY    83  74  74 E10       30.01R
FT STEWART     PTCLDY    78  74  87 NE1       30.01R
ALBANY         CLOUDY    84  71  65 NE5       30.02R
HUNTER AFB     PTCLDY    78  77  97 NE7       30.01R
MOODY AFB      CLEAR     79  72  78 E6        29.99R
BRUNSWICK      CLEAR     81  77  89 NE3       30.02R


CITY           SKY/WX    TMP DP  RH WIND       PRES   REMARKS
BAINBRIDGE*    LGT RAIN  82  70  65 NE6G25    29.99R
MOULTRIE*      CLOUDY    82  72  69 CALM      30.00R
VIDALIA*       CLOUDY    81  77  89 CALM      30.04R
WAYCROSS*        N/A     84  74  73 E6        30.02R HX  91
DOUGLAS*       CLEAR     81  72  74 E5        30.03R
$$



USA.gov is the U.S. government's official web portal to all federal, state and local government web resources and services.